STARLINK-34568, 64717

Orbit data source: Space-Track

STARLINK-34568, 64717 is a payload satellite owned by SpaceX/Seattle (US) in LEO that was launched on Sat, 28 Jun 2025 UTC via an FALCON 9 launch vehicle from the Air Force Western Test Range (AFWTR). Payload-class satellites include a variety of spacecraft equipped with specific instruments for various scientific and technological missions. These include communications satellites like Starlink; space stations such as the ISS; scientific satellites like the Hubble; Earth observation satellites from companies like Planet Labs, Umbra, and HawkEye 360; GPS; miniature CubeSats for education and research; and military/defense satellites.

Loading next visibility...
Identifier
64717, 2025-142X
Orbit
LEO
Country
Flag of USUS
Related business
Manufacturer
SpaceX/Seattle
Mission
Operational Commercial Communications
Bus & Motor
STARLINK V2MO, Unknown motor
Mass
575 kg wet, ~530 kg dry
Launch date (UTC)
2025-06-28 (1 year ago)
Launch vehicle
FALCON 9
Launch site
Air Force Western Test Range (AFWTR)
Object type
Payload
Rocket body
Debris
Shape & HBR
Box + 2 Pan, 17.7 m
Radar Cross Section
36.964 m², Large (>1 m²)

Expand to show TLE details & history
Last TLE update: 7 hours ago

TLE from 7 hours ago
0 STARLINK-34568
1 64717U 25142X   26207.57493075  .00003266  00000-0  28136-3 0  9996
2 64717  70.0024 324.3085 0003489 268.6967  91.3793 14.98336361 60296
Epoch: 2026-07-26T13:47Z
TLE epoch observation values (Epoch: 2026-07-26T13:47:54.016Z)
Latitude
0.00001°
Longitude
173.06254°
Altitude
574.519 km
Speed
7.574 km/s
True Right ascension
21h 37m 14s
True Declination
0° 00' 00"
Sunlit
Object was in full shadow at epoch
Visualization orbit readout
Latitude
Unknown
Longitude
Unknown
Altitude
Unknown
Speed
Unknown
Apparent Right ascension
Unknown
Apparent Declination
Unknown
Sunlit
N/A
Visualization observer readout
Local Sidereal Time
09:51:16
Azimuth
Unknown
Elevation
Unknown
Doppler factor
Unknown
Orbital elements
Apogee altitude
572.408 km
Perigee altitude
567.56 km
Semi-major axis
6,948.121 km
Eccentricity
0.00035
Inclination
70.0024°
RAAN
324.3085°
Arg. of periapsis
268.6967°
True anomaly
91.41927°
Mean anomaly
91.3793°
Eccentric anomaly
91.39928°
Mean motion
3.7475 °/min
Orbital period
96.06 mins
BSTAR
0.00028136
Loading maneuver chart data...
Computing Atmospheric mass density...
Loading historical data...
Loading historical data...
Loading historical data...
Loading historical data...
Loading historical data...
Loading historical data...
Loading historical data...

Documentation

Showing up to 5 results
|